SVA3KP LCLK-OEJN

Flight info

Callsign SVA3KP
Flight time N/A
Altitude 34000
Route EMEDA M67 ANANE DCT RASDA/N0461F350 A16 CVO A727 LXR M999 SEDVA R775 DASPA M999 MUVOL
Aircraft A321/M-SDE3FGHIRWY/LB1

Departure

Time N/A
Airport Larnaca International Airport (LCLK)

Arrival

Time 2026-05-03 20:17
Airport King Abdulaziz International Airport (OEJN)
Time Latitude Longitude Altitude Speed Heading
2026-05-03 20:15 21.58513 39.21257 1690 ft 154 kts 340°
2026-05-03 20:15 21.59523 39.20860 1501 ft 154 kts 340°
2026-05-03 20:15 21.60516 39.20469 1309 ft 152 kts 340°
2026-05-03 20:15 21.61513 39.20076 1115 ft 152 kts 340°
2026-05-03 20:16 21.62509 39.19684 936 ft 152 kts 340°
2026-05-03 20:16 21.63497 39.19289 743 ft 151 kts 339°
2026-05-03 20:16 21.64474 39.18897 601 ft 149 kts 340°
2026-05-03 20:16 21.65437 39.18514 381 ft 147 kts 340°
2026-05-03 20:17 21.66386 39.18143 187 ft 144 kts 339°
2026-05-03 20:17 21.67328 39.17795 36 ft 142 kts 339°
2026-05-03 20:17 21.67927 39.17548 33 ft 23 kts 339°
2026-05-03 20:17 21.68019 39.17452 30 ft 19 kts 307°
2026-05-03 20:18 21.68067 39.17390 30 ft 0 kts 310°
2026-05-03 20:18 21.68069 39.17387 30 ft 0 kts 310°
2026-05-03 20:18 21.68071 39.17385 30 ft 0 kts 310°
2026-05-03 20:19 21.68082 39.17370 30 ft 7 kts 305°
2026-05-03 20:19 21.68079 39.17319 30 ft 7 kts 234°
2026-05-03 20:19 21.68030 39.17268 30 ft 15 kts 229°
2026-05-03 20:19 21.67976 39.17174 30 ft 15 kts 245°
2026-05-03 20:20 21.67934 39.17075 30 ft 14 kts 234°
2026-05-03 20:20 21.67849 39.17060 30 ft 12 kts 165°
2026-05-03 20:20 21.67770 39.17088 31 ft 12 kts 158°
2026-05-03 20:20 21.67698 39.17119 31 ft 11 kts 159°